| time (UTC) | temp F | wind direction | speed MPH | gust MPH | rain 1hr in | rain 24hr in | rain mn in | humidity % | barometer mb |
| 20260901060008 | 54 | 188 | 0.0 | 2.0 | 0.00 | 0.04 | 0.00 | 84 | |
| 20260901055403 | 54 | 188 | 0.0 | 2.0 | 0.00 | 0.04 | 0.04 | 84 | |
| 20260901054713 | 54 | 0 | 0.0 | 0.0 | 0.00 | 0.04 | 0.04 | 84 | |
| 20260901053813 | 55 | 188 | 0.0 | 2.0 | 0.00 | 0.04 | 0.04 | 84 | |
| 20260901052703 | 55 | 188 | 1.0 | 4.0 | 0.00 | 0.04 | 0.04 | 83 | |
| 20260901051803 | 55 | 188 | 2.0 | 6.0 | 0.00 | 0.04 | 0.04 | 82 | |
| 20260901050903 | 56 | 181 | 2.0 | 7.0 | 0.00 | 0.04 | 0.04 | 81 | |
| 20260901050003 | 56 | 176 | 2.0 | 4.0 | 0.00 | 0.04 | 0.04 | 80 | |
| 20260901045403 | 57 | 177 | 2.0 | 9.0 | 0.00 | 0.04 | 0.04 | 79 | |
| 20260901044505 | 57 | 150 | 3.0 | 9.0 | 0.00 | 0.04 | 0.04 | 78 | |
| 20260901043603 | 57 | 91 | 2.0 | 7.0 | 0.00 | 0.04 | 0.04 | 76 | |
| 20260901042703 | 57 | 34 | 2.0 | 13.0 | 0.00 | 0.04 | 0.04 | 76 | |
| 20260901041803 | 57 | 4 | 3.0 | 13.0 | 0.00 | 0.04 | 0.04 | 77 | |
| 20260901040903 | 56 | 21 | 4.0 | 13.0 | 0.00 | 0.04 | 0.04 | 80 | |
| 20260901040003 | 56 | 15 | 6.0 | 15.0 | 0.00 | 0.04 | 0.04 | 81 | |
| 20260901035613 | 56 | 5 | 7.0 | 15.0 | 0.00 | 0.04 | 0.04 | 81 | |
| 20260901034503 | 56 | 350 | 6.0 | 12.0 | 0.00 | 0.04 | 0.04 | 81 | |
| 20260901033603 | 56 | 359 | 3.0 | 9.0 | 0.00 | 0.04 | 0.04 | 81 | |
| 20260901032703 | 56 | 8 | 5.0 | 15.0 | 0.00 | 0.04 | 0.04 | 80 | |
| 20260901031803 | 56 | 9 | 6.0 | 14.0 | 0.01 | 0.04 | 0.04 | 80 | |
| 20260901030903 | 56 | 360 | 5.0 | 11.0 | 0.01 | 0.04 | 0.04 | 79 | |
| 20260901030213 | 56 | 356 | 6.0 | 12.0 | 0.01 | 0.04 | 0.04 | 79 | |
| 20260901025403 | 56 | 343 | 8.0 | 16.0 | 0.02 | 0.04 | 0.04 | 79 | |
| 20260901024503 | 56 | 349 | 8.0 | 15.0 | 0.03 | 0.04 | 0.04 | 80 | |
| 20260901023603 | 56 | 341 | 5.0 | 10.0 | 0.04 | 0.04 | 0.04 | 81 | |
| 20260901022703 | 56 | 352 | 6.0 | 14.0 | 0.04 | 0.04 | 0.04 | 80 | |
| 20260901021803 | 56 | 2 | 6.0 | 13.0 | 0.03 | 0.03 | 0.03 | 79 | |
| 20260901020903 | 57 | 22 | 6.0 | 18.0 | 0.03 | 0.03 | 0.03 | 77 | |
| 20260901020003 | 58 | 18 | 7.0 | 15.0 | 0.03 | 0.03 | 0.03 | 75 | |
| 20260901015614 | 58 | 19 | 7.0 | 15.0 | 0.03 | 0.03 | 0.03 | 74 | |
| 20260901014503 | 60 | 6 | 8.0 | 21.0 | 0.01 | 0.01 | 0.01 | 70 | |
| 20260901013603 | 60 | 359 | 7.0 | 19.0 | 0.00 | 0.00 | 0.00 | 67 | |
| 20260901012914 | 60 | 26 | 5.0 | 14.0 | 0.00 | 0.00 | 0.00 | 65 | |
| 20260901011803 | 61 | 348 | 7.0 | 16.0 | 0.00 | 0.00 | 0.00 | 60 | |
| 20260901010903 | 63 | 343 | 9.0 | 18.0 | 0.00 | 0.00 | 0.00 | 57 | |
| 20260901010003 | 64 | 348 | 7.0 | 13.0 | 0.00 | 0.00 | 0.00 | 59 | |
| 20260901005614 | 64 | 342 | 6.0 | 14.0 | 0.00 | 0.00 | 0.00 | 59 | |
| 20260901004503 | 66 | 342 | 11.0 | 20.0 | 0.00 | 0.00 | 0.00 | 57 | |
| 20260901003603 | 70 | 307 | 13.0 | 25.0 | 0.00 | 0.00 | 0.00 | 51 | |
| 20260901002703 | 75 | 197 | 6.0 | 14.0 | 0.00 | 0.00 | 0.00 | 46 | |
| 20260901001803 | 75 | 173 | 7.0 | 30.0 | 0.00 | 0.00 | 0.00 | 44 | |
| 20260901000903 | 76 | 171 | 5.0 | 12.0 | 0.00 | 0.00 | 0.00 | 45 | |
| 20260901000003 | 76 | 132 | 6.0 | 13.0 | 0.00 | 0.00 | 0.00 | 45 | |
| 20260831235403 | 76 | 122 | 7.0 | 18.0 | 0.00 | 0.00 | 0.00 | 46 | |
| 20260831234503 | 75 | 126 | 9.0 | 18.0 | 0.00 | 0.00 | 0.00 | 46 | |
| 20260831233603 | 74 | 123 | 8.0 | 15.0 | 0.00 | 0.00 | 0.00 | 47 | |
| 20260831232703 | 74 | 131 | 7.0 | 15.0 | 0.00 | 0.00 | 0.00 | 46 | |
| 20260831232013 | 75 | 120 | 9.0 | 19.0 | 0.00 | 0.00 | 0.00 | 45 | |
| 20260831230903 | 76 | 121 | 8.0 | 16.0 | 0.00 | 0.00 | 0.00 | 44 | |
| 20260831230003 | 76 | 120 | 8.0 | 19.0 | 0.00 | 0.00 | 0.00 | 42 | |
| 20260831225403 | 76 | 129 | 8.0 | 19.0 | 0.00 | 0.00 | 0.00 | 43 | |
| 20260831224503 | 76 | 116 | 9.0 | 26.0 | 0.00 | 0.00 | 0.00 | 44 | |
| 20260831223603 | 76 | 117 | 10.0 | 26.0 | 0.00 | 0.00 | 0.00 | 44 | |
| 20260831222703 | 76 | 109 | 7.0 | 21.0 | 0.00 | 0.00 | 0.00 | 46 | |
| 20260831221803 | 76 | 100 | 8.0 | 16.0 | 0.00 | 0.00 | 0.00 | 46 | |
| 20260831220903 | 76 | 120 | 7.0 | 17.0 | 0.00 | 0.00 | 0.00 | 46 | |
| 20260831220003 | 75 | 122 | 7.0 | 13.0 | 0.00 | 0.00 | 0.00 | 46 | |
| 20260831215403 | 74 | 135 | 7.0 | 15.0 | 0.00 | 0.00 | 0.00 | 48 | |
| 20260831214714 | 74 | 138 | 7.0 | 15.0 | 0.00 | 0.00 | 0.00 | 48 | |
| 20260831213603 | 73 | 190 | 7.0 | 21.0 | 0.00 | 0.00 | 0.00 | 51 | |
| 20260831212703 | 74 | 201 | 5.0 | 13.0 | 0.00 | 0.00 | 0.00 | 53 | |
| 20260831211803 | 70 | 109 | 9.0 | 20.0 | 0.00 | 0.00 | 0.00 | 49 | |
| 20260831210903 | 68 | 122 | 9.0 | 22.0 | 0.00 | 0.00 | 0.00 | 46 | |
| 20260831210003 | 70 | 136 | 9.0 | 18.0 | 0.00 | 0.00 | 0.00 | 43 | |
| 20260831205403 | 70 | 148 | 7.0 | 18.0 | 0.00 | 0.00 | 0.00 | 39 | |
| 20260831204503 | 71 | 146 | 7.0 | 15.0 | 0.00 | 0.00 | 0.00 | 43 | |
| 20260831203603 | 71 | 136 | 8.0 | 18.0 | 0.00 | 0.00 | 0.00 | 45 | |
| 20260831202912 | 72 | 135 | 8.0 | 13.0 | 0.00 | 0.00 | 0.00 | 46 |